Home   Weather   Tiraspol   Past weeks

Flag for Moldova Past Weather in Tiraspol, Moldova — Yesterday and Last 2 Weeks

Now
52 °F

Clear.


Feels Like: 47 °F
Forecast: 41 / 71 °F
Wind: 13 mph from Southeast

Location: Chisinau International Airport

Current Time: Apr 27, 2017 at 11:49:24 pm

Latest Report: Apr 27, 2017 at 11:00 pm


Visibility: 10 mi

Pressure: 30.04 "Hg

Humidity: 72%

Dew Point: 43 °F

Location of TiraspolLocation

Past Weather in Tiraspol — Graph

°F

Tiraspol Temperature Yesterday

Maximum temperature yesterday: 66 °F (at 1:00 pm)
Minimum temperature yesterday: 41 °F (at 6:00 am)
Average temperature yesterday: 53 °F

High & Low Weather Summary for the Past Weeks

 TemperatureHumidityPressure
High70 °F (Apr 27, 3:00 pm)100% (Apr 20, 5:30 am)30.15 "Hg (Apr 20, 5:30 am)
Low30 °F (Apr 19, 5:00 am)32% (Apr 15, 5:00 pm)29.68 "Hg (Apr 13, 6:00 pm)
Average47 °F66%29.95 "Hg
* Reported Apr 12 10:00 pm — Apr 27 10:30 pm, Tiraspol, Weather by CustomWeather, © 2017

Note: Actual official high and low records may vary slightly from our data, if they occured in-between our weather recording intervals... More about our weather records

Advertising

Tiraspol Weather History for the Previous 24 Hours

Scroll right to see more
 ConditionsComfort  
Time TempWeatherWind HumidityBarometerVisibility
10:30 pm
Thu, Apr 27
52 °FClear.12 mph72%30.04 "Hg10 mi
10:00 pm54 °FClear.8 mph63%30.04 "Hg10 mi
9:30 pm55 °FClear.12 mph59%30.04 "Hg10 mi
9:00 pm57 °FClear.12 mph55%30.04 "Hg10 mi
8:30 pm59 °FClear.9 mph51%30.01 "Hg10 mi
8:00 pm61 °FSunny.9 mph48%30.01 "Hg10 mi
7:30 pm63 °FSunny.15 mph45%30.01 "Hg10 mi
7:00 pm64 °FSunny.16 mph46%30.01 "Hg10 mi
6:30 pm66 °FSunny.17 mph46%30.01 "Hg10 mi
6:00 pm68 °FSunny.17 mph46%30.01 "Hg10 mi
5:30 pm70 °FSunny.17 mph46%30.01 "Hg10 mi
5:00 pm70 °FSunny.17 mph46%30.01 "Hg10 mi
4:30 pm70 °FSunny.20 mph46%30.01 "Hg10 mi
4:00 pm70 °FSunny.17 mph46%30.01 "Hg10 mi
3:30 pm70 °FSunny.18 mph46%30.01 "Hg10 mi
3:00 pm70 °FSunny.20 mph46%30.01 "Hg10 mi
2:30 pm68 °FSunny.17 mph46%30.04 "Hg10 mi
2:00 pm68 °FSunny.17 mph49%30.04 "Hg10 mi
1:30 pm68 °FSunny.18 mph46%30.04 "Hg10 mi
1:00 pm68 °FSunny.20 mph46%30.04 "Hg10 mi
12:30 pm66 °FSunny.17 mph49%30.04 "Hg10 mi
12:00 pm64 °FSunny.14 mph52%30.07 "Hg10 mi
11:30 am61 °FSunny.12 mph63%30.07 "Hg10 mi
11:00 am59 °FSunny.13 mph63%30.07 "Hg10 mi
10:30 am57 °FSunny.14 mph67%30.07 "Hg10 mi
10:00 am54 °FSunny.13 mph72%30.07 "Hg10 mi
9:30 am52 °FPassing clouds.13 mph77%30.07 "HgN/A
9:00 am50 °FPassing clouds.12 mph82%30.07 "HgN/A
8:30 am46 °FPassing clouds.10 mph87%30.07 "HgN/A
8:00 am45 °FPassing clouds.9 mph87%30.07 "HgN/A
7:30 am45 °FScattered clouds.10 mph87%30.07 "Hg5 mi
7:00 am43 °FScattered clouds.6 mph93%30.07 "Hg5 mi
6:30 am43 °FPassing clouds.7 mph93%30.07 "Hg5 mi
6:00 am43 °FPassing clouds.6 mph93%30.07 "Hg4 mi
5:30 am41 °FPassing clouds.7 mph93%30.07 "Hg5 mi
4:30 am41 °FClear.5 mph93%30.07 "Hg10 mi
4:00 am43 °FClear.2 mph87%30.07 "Hg10 mi
3:30 am43 °FClear.8 mph93%30.07 "Hg10 mi
3:00 am43 °FClear.10 mph87%30.07 "Hg10 mi
2:30 am43 °FClear.9 mph87%30.07 "Hg10 mi
2:00 am43 °FClear.8 mph93%30.09 "Hg10 mi
1:30 am45 °FClear.8 mph87%30.09 "Hg10 mi
1:00 am45 °FClear.10 mph93%30.09 "Hg10 mi
12:30 am45 °FClear.12 mph93%30.09 "Hg10 mi
12:00 am45 °FClear.12 mph93%30.09 "Hg10 mi
11:30 pm
Wed, Apr 26
46 °FClear.12 mph87%30.07 "Hg10 mi
11:00 pm46 °FClear.10 mph87%30.07 "Hg10 mi
Weather by CustomWeather, © 2017

See weather overviewHow to use our weather pages